CST,Max TemperatureF,Mean TemperatureF,Min TemperatureF,Max Dew PointF,MeanDew PointF,Min DewpointF,Max Humidity, Mean Humidity, Min Humidity, Max Sea Level PressureIn, Mean Sea Level PressureIn, Min Sea Level PressureIn, Max VisibilityMiles, Mean VisibilityMiles, Min VisibilityMiles, Max Wind SpeedMPH, Mean Wind SpeedMPH, Max Gust SpeedMPH,PrecipitationIn, CloudCover, Events, WindDirDegrees
2013-2-1,3,-12,-27,0,-16,-35,85,75,63,30.30,30.14,30.01,10,8,2,17,7,20,0.00,4,,172
2013-2-2,12,0,-13,7,-3,-18,85,81,73,30.18,30.08,29.95,10,8,1,20,6,30,0.00,7,,19
2013-2-3,10,3,-4,5,0,-8,85,78,67,30.11,30.04,29.98,10,8,2,12,8,12,0.00,6,,5
2013-2-4,19,8,-4,16,1,-8,93,76,66,30.06,29.90,29.61,10,10,4,18,9,,0.00,5,,164
2013-2-5,30,18,6,27,10,1,93,80,73,30.06,29.91,29.61,10,9,2,24,10,26,0.00,6,,328
2013-2-6,28,19,10,21,15,5,86,79,73,30.05,29.93,29.84,10,10,7,16,8,16,0.00,6,,119
2013-2-7,24,14,5,21,15,3,93,86,79,30.31,30.20,30.07,10,8,2,16,8,,0.00,6,,5
2013-2-8,24,14,5,21,13,1,93,87,79,30.31,30.19,30.01,10,6,0,25,7,31,0.00,4,,142
2013-2-9,32,28,23,30,25,19,100,89,86,30.01,29.91,29.82,10,5,2,18,14,25,0.04,6,,141
2013-2-10,30,28,26,30,27,23,100,92,86,29.81,29.59,29.46,10,1,0,32,14,41,0.00,8,,37
2013-2-11,26,16,6,23,16,3,93,84,74,30.01,29.90,29.63,10,9,2,30,21,38,0.00,6,,309
2013-2-12,24,16,8,19,13,5,93,85,79,29.96,29.84,29.78,10,10,1,15,9,,0.00,1,,228
2013-2-13,30,22,15,27,22,14,93,89,80,29.77,29.67,29.57,10,7,0,14,6,,0.00,5,,299
2013-2-14,21,8,-5,18,6,-9,93,83,73,30.27,30.05,29.76,10,9,5,24,12,26,0.00,3,,329
2013-2-15,10,-2,-14,9,-5,-20,92,82,71,30.37,30.32,30.24,10,9,2,9,4,,0.00,3,,288
2013-2-16,15,5,-5,10,3,-11,92,83,77,30.24,30.10,29.98,10,9,0,17,6,21,0.00,5,,142
2013-2-17,28,19,10,27,18,5,93,85,79,29.98,29.69,29.50,10,9,5,22,15,28,0.00,3,,153
2013-2-18,32,16,0,32,8,-8,100,80,66,30.09,29.79,29.49,10,5,0,36,19,45,0.00,7,,324
2013-2-19,0,-6,-13,-6,-13,-17,85,74,65,30.47,30.32,30.11,,,,32,20,40,0.00,5,,338
2013-2-20,1,-11,-23,-6,-16,-31,85,73,65,30.48,30.43,30.35,,,,8,4,,0.00,0,,104
2013-2-21,19,4,-11,9,0,-17,85,71,62,30.39,30.29,30.13,10,10,10,12,5,,0.00,1,,103
2013-2-22,19,14,10,14,11,7,92,81,73,30.13,29.99,29.91,10,9,2,14,7,,0.00,7,,334
2013-2-23,17,8,-2,14,5,-6,93,87,78,29.96,29.89,29.86,10,5,0,6,3,,0.00,5,,131
2013-2-24,21,8,-4,14,4,-8,93,83,74,30.07,30.03,29.95,10,8,0,10,3,,0.00,4,,153
2013-2-25,24,20,17,23,19,14,93,92,86,30.10,30.06,30.01,10,2,0,13,4,,0.00,8,,190
2013-2-26,21,19,17,19,17,16,93,92,86,30.06,30.04,30.01,3,1,0,9,4,,0.00,8,,316
2013-2-27,26,22,19,23,20,16,93,88,80,30.16,30.10,30.05,10,7,0,23,9,29,0.00,5,,335
2013-2-28,26,20,14,19,17,10,93,81,69,30.29,30.23,30.16,10,10,10,16,9,,0.00,7,,348